User: anonymous   Login
Location: Unspecified
(0.0000°N, 0.0000°E)
Time: 03:11:03
(UTC+01:00)
Language:

ADEOS II - Orbit

View from above orbital plane
View from above orbital plane
View from above satellite
View from above satellite

Ground track
Ground track

The orbit data is extracted from the following two-line orbital elements,

1 27597U 02056A   17017.88980886  .00000049  00000-0  37139-4 0  9994
2 27597  98.3498 353.9988 0002039  71.2741 288.8662 14.27261519733982
Epoch (UTC): 17 January 2017 21:21:19
Eccentricity: 0.0002039
inclination: 98.3498°
perigee height: 799 km
apogee height: 802 km
right ascension of ascending node: 353.9988°
argument of perigee: 71.2741°
revolutions per day: 14.27261519
mean anomaly at epoch: 288.8662°
orbit number at epoch: 73398

The dashed part of the orbit path shows where the satellite is in the earth's shadow,  

DLR